814  
ASUS42 KILM 200913  
RWRILM  
RWRILM  
REGIONAL HOURLY WEATHER ROUNDUP  
NATIONAL WEATHER SERVICE WILMINGTON NC  
500 AM EDT SAT OCT 20 2018  
 
NOTE: "FAIR" INDICATES FEW OR NO CLOUDS BELOW 12,000 FEET WITH NO  
SIGNIFICANT WEATHER AND/OR S TO VISIBILITY
.  
   
..............WFO WILMINGTON COUNTY WARNING AREA............
 
 
   
.....COASTAL NC AND SC COUNTIES...
 
 
 
CITY SKY/WX TMP DP RH WIND PRES REMARKS
 
WILMINGTON FAIR 70 67 90 S6 29.98F  
N MYRTLE BEACH FAIR 73 70 90 W3 29.98F  
MYRTLE BEACH FAIR 69 67 93 SW5 30.01F  
   
.....INLAND NC AND SC COUNTIES....
 
 
 
CITY SKY/WX TMP DP RH WIND PRES REMARKS
 
LUMBERTON CLOUDY 67 65 93 SW7 29.97F  
ELIZABETHTOWN MOCLDY 66 64 96 S6 29.98F  
WHITEVILLE FAIR 66 64 96 SW5 29.98F  
FLORENCE MOCLDY 67 65 93 SW7 30.00F  
DARLINGTON CLOUDY 67 63 87 SW8 29.99F  
KINGSTREE CLOUDY 64 63 94 CALM 30.00F  
HARTSVILLE FAIR 64 63 94 SW5 29.98F  
BENNETTSVILLE FAIR 64 63 94 S3 29.98F  
CONWAY FAIR 64 64 100 CALM 30.00S  
GEORGETOWN FAIR 64 63 94 SW3 30.02S  
MARION CLOUDY 64 64 100 SW5 30.00S  
   
...................REST OF NORTH CAROLINA...................
 
 
   
........EASTERN NC......
 
 
 
CITY SKY/WX TMP DP RH WIND PRES REMARKS
 
CAPE HATTERAS MOCLDY 75 66 73 SW15G26 29.98F  
JACKSONVILLE FAIR 65 65 100 S5 29.98F  
MOREHEAD CITY MOCLDY 74 70 87 SW15 29.97  
KENANSVILLE MOCLDY 64 63 94 CALM 29.97F  
NEW BERN FAIR 64 63 96 SW3 29.98F  
ELIZABETH CITY LGT RAIN 67 62 84 SW8 29.95F  
   
........CENTRAL NC......
 
 
 
CITY SKY/WX TMP DP RH WIND PRES REMARKS
 
RALEIGH DURHAM CLOUDY 61 61 100 S8 29.93F  
ROCKY MOUNT FAIR 63 62 97 S8 29.95F  
ROANOKE RAPIDS NOT AVBL  
FAYETTEVILLE CLOUDY 67 63 87 SW8 29.96F  
HOFFMAN MOCLDY 67 62 85 SW8 29.96F  
   
........WESTERN NC......
 
 
 
CITY SKY/WX TMP DP RH WIND PRES REMARKS
 
CHARLOTTE MOCLDY 63 60 90 SW9 29.96F  
GREENSBORO MOCLDY 59 56 89 SW8 29.91F  
HICKORY NOT AVBL  
BOONE NOT AVBL  
ASHEVILLE NOT AVBL  
   
....................REST OF SOUTH CAROLINA..................
 
 
   
........EASTERN SC......
 
 
 
CITY SKY/WX TMP DP RH WIND PRES REMARKS
 
CHARLESTON FAIR 70 69 97 W5 30.02S  
BEAUFORT MCAS FAIR 70 70 100 SW5 30.03F  
HILTON HEAD MOCLDY 72 70 94 SW5 30.04S  
   
........CENTRAL SC......
 
 
 
CITY SKY/WX TMP DP RH WIND PRES REMARKS
 
COLUMBIA CLOUDY 69 65 86 SW7 29.99F  
ORANGEBURG CLOUDY 67 63 87 W5 30.02F  
SUMTER SHAW FAIR 67 62 85 SW8 29.99F  
   
........WESTERN SC......
 
 
 
CITY SKY/WX TMP DP RH WIND PRES REMARKS
 
GREENVILLE NOT AVBL  
ROCK HILL FAIR 62 60 93 SW9 29.97F  
ANDERSON CLOUDY 64 58 80 SW8 30.00F  
CLEMSON NOT AVBL  
GREENWOOD FAIR 61 58 90 SW9 30.02F  
 
   
..................COASTAL AND OFFSHORE REPORTS...............
 
 
   
...............LOCAL PIERS AND NC RESERVE.............
 
 
 
STATION/POSITION TIME SKY/WX TEMP WIND PRES VSBY
 
AIR SEA DIR/SP/G  
(UTC) (F) (DEG/KT/KT) (MB) (MI)  
JOHNY MRCER PIER 0848 73 78 190/ 18/ 19 1015.1F  
NC RESRV MASNBRO NOT AVBL  
OCEAN CREST PIER NOT AVBL  
SPRINGMAID PIER NOT AVBL  
 
   
...............COASTAL AND OFFSHORE BUOYS.............
 
 
 
STATION/POSITION TIME SKY/WX TEMP WIND PRES VSBY
 
AIR SEA DIR/SP/G  
(UTC) (F) (DEG/KT/KT) (MB) (MI)  
DIMNDSHOAL 41025 0850 75 76 210/ 21/ 27 1015.6F  
WVE H/P(F/S)= 4/ 4 SWL H/P/D(F/S/D)= 2/130/ 9  
 
CAPE LOOKOUT 0900 210/ 11/ 15 1015.5F  
ONSLOW BAY 41036 NOT AVBL  
ONSLOW BAY 41064 0808 74 79 230/ 19/ 25 1015.2F  
ONSLOW BAY 41159 0900 79 N/A  
WVE H/P(F/S)= 5/ 5  
 
MASNBO INL 41110 0900 77 N/A  
WVE H/P(F/S)= 4/ 5  
 
WILM HARBR 41108 0900 77 N/A  
WVE H/P(F/S)= 3/ 8  
 
27SE WRITB 41037 0808 73 79 200/ 16/ 19 1015.5F  
FRYING PAN 41013 0850 74 79 120/ 8/ 10 1015.4F  
WVE H/P(F/S)= 3/ 8 SWL H/P/D(F/S/D)= 2/110/ 8  
 
SUNST NRSH 41024 0808 75 77 230/ 12/ 16 1021.1F  
CAPRS NRSH 41029 0808 76 77 250/ 10 1015.6F  
EDISTO 41004 0850 77 80 1016.3F  
WVE H/P(F/S)= 4/ 7 SWL H/P/D(F/S/D)= 3/120/ 7  
 
   
.........OFFSHORE BUOYS BEYOND 100 NM OFFSHORE........
 
   
....IN A TRIANGLE---HAT TO BERMUDA TO BAHAMAS TO HAT..
 
 
 
 
STATION/POSITION TIME SKY/WX TEMP WIND PRES VSBY
 
AIR SEA DIR/SP/G  
(UTC) (F) (DEG/KT/KT) (MB) (MI)  
150E HAT 41001 NOT AVBL  
W BERMUDA 41048 NOT AVBL  
ATLANTIC S 41049 0850 81 50/ 17/ 23 1017.2F  
WVE H/P(F/S)= 9/11 SWL H/P/D(F/S/D)= 5/350/11  
 
E BAHAMAS 41046 0850 CALM / 2 1015.9R  
WVE H/P(F/S)= 5/ 9 SWL H/P/D(F/S/D)= 5/ 40/ 9  
 
NE BAHAMAS 41047 0850 80/ 10/ 16 1018.4F  
WVE H/P(F/S)= 7/ 8 SWL H/P/D(F/S/D)= 5/ 30/ 8  
 
120E CANVRL41010 0850 81 83 180/ 8/ 12 1017.5F  
 
END  
 
 
CLICK HERE TO GO TO PREVIOUS BULLETINS.

The Nexlab NC Page
The Nexlab SC Page Main Text Page